World > North America > United States > Ohio > Frazeysburg  

Frazeysburg, OH Hourly Weather Updates

Feedback E-mail the Weather

Quick Clicks

Frazeysburg, OH Weather Maps

°F °C°F °C
Frazeysburg Weather Map
UTC Time: 6/24/2024, 12:15
Your Time:

Frazeysburg, OH Regional Weather

Expires:202406241300;;577873
ASUS41 KCLE 241212
RWRCLE
OHIO REGIONAL WEATHER ROUNDUP
NATIONAL WEATHER SERVICE WILMINGTON, OH
800 AM EDT MON JUN 24 2024

NOTE: "FAIR" INDICATES FEW OR NO CLOUDS BELOW 12,000 FEET WITH NO
SIGNIFICANT WEATHER AND/OR OBSTRUCTIONS TO VISIBILITY.


OHZ036-037-039>041-045>050-054>059-063>069-073>076-082>088-241300-
  CENTRAL AND SOUTHEAST OHIO
  
CITY           SKY/WX    TMP DP  RH WIND       PRES   REMARKS
COLUMBUS       FAIR      68  61  78 N12       29.93R                  
OSU AIRPORT    FAIR      69  60  73 N8        29.95R                  
BOLTON FIELD   SUNNY     66  61  82 NW9       29.95R                  
RICKENBACK AFB FAIR      69  61  76 N8        29.94R                  
NEWARK         FAIR      70  62  76 NW3       29.93R                  
MARION         FAIR      66  61  84 NW7       29.95R                  
LANCASTER      FAIR      69  63  81 N8        29.94R                  
ZANESVILLE     FAIR      70  62  76 N6        29.92R                  
NEW PHILLY     FAIR      69  60  73 NW8       29.92R                  
$$
  

SKY/WX - Weather  TMP - Temperature  DP - Dew Point  RH - Humidity
WIND - Wind Direction/Speed PRES - Barometric Pressure VSB - Visibility
WCI - Wind Chill Index E13G22 Wind - East Wind 13 mph/Gusts of 22 mph

Trending Headlines

Trending Entertainment Headlines

Frazeysburg Radar Loop

Use the map search tool if you want to place a location marker on the radar map...

Frazeysburg Quick Facts

National Two Day Weather Forecast


E-mail the Frazeysburg Weather Forecast

Voice your opinion or tell us about page issues...